Location: Chevoux
(46.3801°N, 4.9476°E)
Time: 23:37:39
(UTC+00:00)

X-37B - Visible Passes

Search period start: 30 November 2021 00:00
Search period end: 10 December 2021 00:00
Orbit: 330 x 341 km, 45.0° (Epoch: 20 November)

Date Brightness Start Highest point End Pass type
(mag) Time Alt. Az. Time Alt. Az. Time Alt. Az.
06 Dec 3.7 18:29:40 10° SW 18:29:43 10° SW 18:29:43 10° SW visible
07 Dec 2.5 17:15:42 10° S 17:17:26 15° SSE 17:18:08 14° SE visible
08 Dec 1.6 17:35:06 10° SW 17:37:38 28° SSE 17:37:44 28° SSE visible
09 Dec 1.5 17:55:09 10° WSW 17:57:18 38° SSW 17:57:18 38° SSW visible
